Location: Wallasey
(53.4265°N, 3.0662°W)
Time: 19:40:59
(UTC+01:00)

CAS-4A - Pass Details

Date: 02 October 2019
Orbit: 528 x 546 km, 43.0° (Epoch: 20 October)

Event Time Altitude Azimuth Distance (km) Brightness Sun altitude
Exits shadow 06:23:03 - 226° (SW) 2,180 ? -8.5°
Reaches altitude 10° 06:24:19 10° 216° (SW) 1,800 ? -8.4°
Maximum altitude 06:27:09 18° 172° (S) 1,353 ? -7.9°
Drops below altitude 10° 06:30:00 10° 128° (SE) 1,794 ? -7.5°
Sets 06:32:45 0° 110° (ESE) 2,682 ? -7.1°
